Date String (YYYY-MM-DD hh:mm:ss) UTC,Instrument flags,Ambient pressure (hPa),Sample flow (lpm),Bypass flow (lpm),Sample temperature (°C),Ambient temperature (°C),ASC tube jacket temperature (°C),LED temperature (°C),Box temperature (°C),Sample RH (%),Span deviation,Mass concentration (μg/m³),Mass concentration (μg/m³),Mass concentration (μg/m³)
DateTimeUTC,F1_M11,P_M11,Q1_M11,Q2_M11,T1_M11,T2_M11,T3_M11,T4_M11,T5_M11,U1_M11,ZSPAN_M11,X0_M11,X2_M11,X1_M11
2022-10-13 07:00:00,,0831.8,5.00,0.00,28.3,26.5,00.0,37.3,30.1,14.2,0000.0,0014.52,0005.63,0004.38
2022-10-13 07:01:00,,0831.8,5.00,0.00,28.3,26.5,00.0,37.3,30.1,14.2,0000.0,0014.43,0005.64,0004.38
2022-10-13 07:02:00,,0831.7,5.00,0.00,28.3,26.5,00.0,37.3,30.1,14.2,0000.0,0014.25,0005.62,0004.39
2022-10-13 07:03:00,,0831.7,4.99,0.00,28.3,26.5,00.0,37.3,30.1,14.2,0000.0,0013.43,0005.57,0004.41
2022-10-13 07:04:00,,0831.7,5.00,0.00,28.3,26.5,00.0,37.2,30.1,14.2,0000.0,0013.67,0005.59,0004.42
2022-10-13 07:05:00,,0831.7,5.00,0.00,28.3,26.5,00.0,37.2,30.1,14.2,0000.0,0013.63,0005.58,0004.42
2022-10-13 07:06:00,,0831.8,5.00,0.00,28.3,26.5,00.0,37.2,30.1,14.2,0000.0,0013.30,0005.58,0004.43
2022-10-13 07:07:00,,0831.7,5.00,0.00,28.3,26.5,00.0,37.2,30.1,14.2,0000.0,0013.15,0005.54,0004.43
2022-10-13 07:08:00,,0831.7,5.00,0.00,28.3,26.5,00.0,37.2,30.0,14.2,0000.0,0012.99,0005.48,0004.45
2022-10-13 07:09:00,,0831.8,5.00,0.00,28.3,26.4,00.0,37.2,30.0,14.2,0000.0,0012.97,0005.48,0004.45
2022-10-13 07:10:00,,0831.7,5.00,0.00,28.2,26.5,00.0,37.2,30.0,14.2,0000.0,0012.40,0005.47,0004.45
2022-10-13 07:11:00,,0831.8,5.00,0.00,28.2,26.5,00.0,37.2,30.0,14.2,0000.0,0013.07,0005.50,0004.46
2022-10-13 07:12:00,,0831.8,5.00,0.00,28.2,26.4,00.0,37.2,29.9,14.2,0000.0,0013.31,0005.48,0004.46
2022-10-13 07:13:00,,0831.8,5.00,0.00,28.2,26.4,00.0,37.1,30.0,14.2,0000.0,0013.67,0005.48,0004.45
2022-10-13 07:14:00,,0831.9,4.99,0.00,28.2,26.4,00.0,37.1,29.9,14.2,0000.0,0013.62,0005.45,0004.44
2022-10-13 07:15:00,,0831.9,5.00,0.00,28.2,26.4,00.0,37.1,29.9,14.2,0000.0,0013.37,0005.45,0004.43
2022-10-13 07:16:00,,0831.9,5.00,0.00,28.2,26.3,00.0,37.1,29.9,14.2,0000.0,0013.59,0005.48,0004.43
2022-10-13 07:17:00,,0831.9,5.00,0.00,28.1,26.3,00.0,37.1,29.9,14.2,0000.0,0013.28,0005.44,0004.41
2022-10-13 07:18:00,,0831.8,5.00,0.00,28.1,26.3,00.0,37.1,29.9,14.2,0000.0,0013.89,0005.46,0004.40
2022-10-13 07:19:00,,0831.7,5.00,0.00,28.1,26.3,00.0,37.1,29.8,14.3,0000.0,0014.31,0005.50,0004.39
2022-10-13 07:20:00,,0831.7,5.00,0.00,28.1,26.3,00.0,37.1,29.9,14.3,0000.0,0014.25,0005.50,0004.39
2022-10-13 07:21:00,,0831.7,5.00,0.00,28.1,26.3,00.0,37.0,29.8,14.3,0000.0,0014.20,0005.47,0004.40
2022-10-13 07:22:00,,0831.7,5.00,0.00,28.1,26.2,00.0,37.0,29.8,14.3,0000.0,0013.61,0005.45,0004.41
2022-10-13 07:23:00,,0831.7,5.00,0.00,28.1,26.2,00.0,37.0,29.7,14.3,0000.0,0013.67,0005.43,0004.39
2022-10-13 07:24:00,,0831.7,5.00,0.00,28.0,26.2,00.0,37.0,29.8,14.3,0000.0,0013.16,0005.46,0004.40
2022-10-13 07:25:00,,0831.7,5.00,0.00,28.0,26.2,00.0,37.0,29.8,14.3,0000.0,0013.09,0005.50,0004.41
2022-10-13 07:26:00,,0831.7,5.01,0.00,28.0,26.2,00.0,37.0,29.8,14.3,0000.0,0013.70,0005.54,0004.41
2022-10-13 07:27:00,,0831.7,5.01,0.00,28.0,26.2,00.0,37.0,29.8,14.3,0000.0,0013.79,0005.47,0004.41
2022-10-13 07:28:00,,0831.7,5.00,0.00,28.0,26.1,00.0,37.0,29.7,14.4,0000.0,0014.21,0005.49,0004.42
2022-10-13 07:29:00,,0831.7,4.99,0.00,28.0,26.1,00.0,36.9,29.7,14.4,0000.0,0014.23,0005.51,0004.42
2022-10-13 07:30:00,,0831.7,5.00,0.00,28.0,26.1,00.0,36.9,29.6,14.4,0000.0,0014.33,0005.47,0004.44
2022-10-13 07:31:00,,0831.7,5.00,0.00,27.9,26.0,00.0,36.9,29.6,14.5,0000.0,0014.52,0005.46,0004.45
2022-10-13 07:32:00,,0831.7,5.01,0.00,27.9,26.0,00.0,36.9,29.6,14.5,0000.0,0014.79,0005.48,0004.45
2022-10-13 07:33:00,,0831.7,5.00,0.00,27.9,26.0,00.0,36.9,29.6,14.5,0000.0,0015.28,0005.50,0004.46
2022-10-13 07:34:00,,0831.8,5.01,0.00,27.9,26.0,00.0,36.9,29.5,14.5,0000.0,0014.89,0005.53,0004.48
2022-10-13 07:35:00,,0831.8,5.01,0.00,27.9,26.0,00.0,36.9,29.5,14.5,0000.0,0014.70,0005.50,0004.48
2022-10-13 07:36:00,,0831.7,5.00,0.00,27.9,26.0,00.0,36.8,29.5,14.5,0000.0,0015.57,0005.54,0004.49
2022-10-13 07:37:00,,0831.7,4.99,0.00,27.8,25.9,00.0,36.8,29.5,14.5,0000.0,0015.16,0005.53,0004.52
2022-10-13 07:38:00,,0831.7,4.99,0.00,27.8,25.9,00.0,36.8,29.5,14.6,0000.0,0014.78,0005.56,0004.53
2022-10-13 07:39:00,,0831.8,5.00,0.00,27.8,25.9,00.0,36.8,29.5,14.6,0000.0,0014.96,0005.62,0004.55
2022-10-13 07:40:00,,0831.7,5.01,0.00,27.8,25.9,00.0,36.8,29.5,14.6,0000.0,0015.40,0005.63,0004.57
2022-10-13 07:41:00,,0831.7,5.01,0.00,27.8,25.9,00.0,36.8,29.5,14.6,0000.0,0014.96,0005.64,0004.57
2022-10-13 07:42:00,,0831.7,5.01,0.00,27.8,25.8,00.0,36.8,29.4,14.6,0000.0,0015.23,0005.63,0004.57
2022-10-13 07:43:00,,0831.7,5.00,0.00,27.8,25.8,00.0,36.7,29.4,14.6,0000.0,0014.91,0005.66,0004.57
2022-10-13 07:44:00,,0831.7,5.01,0.00,27.7,25.8,00.0,36.7,29.4,14.7,0000.0,0014.35,0005.71,0004.58
2022-10-13 07:45:00,,0831.7,4.99,0.00,27.7,25.8,00.0,36.7,29.4,14.7,0000.0,0014.84,0005.75,0004.58
2022-10-13 07:46:00,,0831.7,4.99,0.00,27.7,25.8,00.0,36.7,29.4,14.7,0000.5,0014.85,0005.78,0004.58
2022-10-13 07:47:00,,0831.7,5.00,0.00,27.7,25.8,00.0,36.7,29.4,14.7,0000.8,0014.36,0005.74,0004.58
2022-10-13 07:48:00,,0831.7,5.00,0.00,27.7,25.8,00.0,36.7,29.4,14.7,0001.0,0015.64,0005.80,0004.58
2022-10-13 07:49:00,,0831.7,5.00,0.00,27.7,25.8,00.0,36.7,29.4,14.7,0000.0,0016.08,0005.79,0004.57
2022-10-13 07:50:00,,0831.8,5.00,0.00,27.7,25.8,00.0,36.6,29.4,14.7,0000.0,0015.83,0005.83,0004.58
2022-10-13 07:51:00,,0831.8,5.00,0.00,27.6,25.8,00.0,36.6,29.4,14.7,0000.0,0014.87,0005.84,0004.58
2022-10-13 07:52:00,,0831.8,5.00,0.00,27.6,25.8,00.0,36.6,29.4,14.8,0000.0,0014.89,0005.89,0004.58
2022-10-13 07:53:00,,0831.7,5.00,0.00,27.6,25.8,00.0,36.6,29.4,14.8,0000.0,0014.34,0005.92,0004.59
2022-10-13 07:54:00,,0831.7,5.00,0.00,27.6,25.8,00.0,36.6,29.4,14.8,0000.0,0014.22,0005.90,0004.60
2022-10-13 07:55:00,,0831.8,4.98,0.00,27.6,25.8,00.0,36.6,29.4,14.8,0000.0,0014.49,0005.87,0004.61
2022-10-13 07:56:00,,0831.7,5.00,0.00,27.6,25.8,00.0,36.5,29.4,14.8,0000.0,0014.12,0005.86,0004.62
2022-10-13 07:57:00,,0831.7,5.00,0.00,27.6,25.7,00.0,36.5,29.3,14.8,0000.0,0015.00,0005.87,0004.62
2022-10-13 07:58:00,,0831.7,5.01,0.00,27.6,25.7,00.0,36.5,29.3,14.8,0000.0,0014.96,0005.87,0004.62
2022-10-13 07:59:00,,0831.8,5.01,0.00,27.6,25.7,00.0,36.5,29.3,14.8,0000.0,0013.49,0005.79,0004.61
